Time,TemperatureF,DewpointF,PressureIn,WindDirection,WindDirectionDegrees,WindSpeedMPH,WindSpeedGustMPH,Humidity,HourlyPrecipIn,Conditions,Clouds,dailyrainin,SoftwareType,DateUTC
2013-11-26 00:12:00,28.0,24.0,30.11,WSW,238,1.0,4.0,84,0.00,,,0.00,,2013-11-26 06:12:00,
2013-11-26 00:22:00,26.0,23.0,30.11,SSW,198,3.0,5.0,87,0.00,,,0.00,,2013-11-26 06:22:00,
2013-11-26 00:42:00,27.0,24.0,30.11,SW,227,2.0,7.0,88,0.00,,,0.00,,2013-11-26 06:42:00,
2013-11-26 00:52:00,27.0,24.0,30.11,SSW,201,4.0,7.0,88,0.00,,,0.00,,2013-11-26 06:52:00,
2013-11-26 01:12:00,27.0,24.0,30.11,SSW,192,5.0,8.0,87,0.00,,,0.00,,2013-11-26 07:12:00,
2013-11-26 01:21:00,27.0,24.0,30.11,SW,215,4.0,8.0,87,0.00,,,0.00,,2013-11-26 07:21:00,
2013-11-26 01:42:00,28.0,24.0,30.11,SSW,200,4.0,9.0,86,0.00,,,0.00,,2013-11-26 07:42:00,
2013-11-26 01:52:00,28.0,24.0,30.11,SW,223,4.0,10.0,85,0.00,,,0.00,,2013-11-26 07:52:00,
2013-11-26 02:22:00,28.0,24.0,30.11,SW,225,3.0,6.0,84,0.00,,,0.00,,2013-11-26 08:22:00,
2013-11-26 02:42:00,28.0,24.0,30.11,SW,229,3.0,5.0,84,0.00,,,0.00,,2013-11-26 08:42:00,
2013-11-26 02:52:00,29.0,25.0,30.11,SW,214,3.0,8.0,83,0.00,,,0.00,,2013-11-26 08:52:00,
2013-11-26 03:11:00,29.0,25.0,30.11,SW,215,2.0,6.0,83,0.00,,,0.00,,2013-11-26 09:11:00,
2013-11-26 03:21:00,29.0,25.0,30.11,SW,227,3.0,5.0,84,0.00,,,0.00,,2013-11-26 09:21:00,
2013-11-26 03:43:00,29.0,25.0,30.10,SW,236,3.0,5.0,83,0.00,,,0.00,,2013-11-26 09:43:00,
2013-11-26 03:53:00,29.0,24.0,30.10,WSW,256,4.0,6.0,82,0.00,,,0.00,,2013-11-26 09:53:00,
2013-11-26 04:12:00,30.0,25.0,30.09,WSW,241,1.0,6.0,82,0.00,,,0.00,,2013-11-26 10:12:00,
2013-11-26 04:23:00,29.0,25.0,30.09,SW,233,2.0,4.0,83,0.00,,,0.00,,2013-11-26 10:23:00,
2013-11-26 04:43:00,29.0,25.0,30.09,SW,221,3.0,5.0,83,0.00,,,0.00,,2013-11-26 10:43:00,
2013-11-26 04:53:00,29.0,25.0,30.09,SW,226,2.0,4.0,83,0.00,,,0.00,,2013-11-26 10:53:00,
2013-11-26 05:23:00,29.0,25.0,30.09,SW,225,2.0,5.0,84,0.00,,,0.00,,2013-11-26 11:23:00,
2013-11-26 05:42:00,29.0,25.0,30.09,SSW,211,2.0,5.0,84,0.00,,,0.00,,2013-11-26 11:42:00,
2013-11-26 05:52:00,29.0,25.0,30.09,SSW,197,2.0,4.0,84,0.00,,,0.00,,2013-11-26 11:52:00,
2013-11-26 06:12:00,29.0,25.0,30.09,SW,229,3.0,5.0,84,0.00,,,0.00,,2013-11-26 12:12:00,
2013-11-26 06:22:00,30.0,26.0,30.08,SW,236,2.0,4.0,84,0.00,,,0.00,,2013-11-26 12:22:00,
2013-11-26 06:42:00,30.0,26.0,30.08,SW,232,2.0,6.0,85,0.00,,,0.00,,2013-11-26 12:42:00,
2013-11-26 06:52:00,30.0,26.0,30.09,SW,236,2.0,5.0,85,0.00,,,0.00,,2013-11-26 12:52:00,
2013-11-26 07:22:00,30.0,26.0,30.06,West,268,3.0,6.0,84,0.00,,,0.00,,2013-11-26 13:22:00,
2013-11-26 07:42:00,30.0,26.0,30.05,West,264,3.0,6.0,85,0.00,,,0.00,,2013-11-26 13:42:00,
2013-11-26 07:52:00,30.0,26.0,30.05,West,261,3.0,6.0,85,0.00,,,0.00,,2013-11-26 13:52:00,
2013-11-26 08:12:00,30.0,26.0,30.07,SW,233,2.0,5.0,85,0.00,,,0.00,,2013-11-26 14:12:00,
2013-11-26 08:22:00,31.0,27.0,30.07,SW,233,3.0,5.0,85,0.00,,,0.00,,2013-11-26 14:22:00,
2013-11-26 08:32:00,31.0,27.0,30.07,SW,233,3.0,5.0,85,0.00,,,0.00,,2013-11-26 14:32:00,
2013-11-26 08:42:00,31.0,27.0,30.07,SW,233,3.0,5.0,85,0.00,,,0.00,,2013-11-26 14:42:00,
2013-11-26 08:52:00,31.0,27.0,30.07,WSW,246,3.0,7.0,85,0.00,,,0.00,,2013-11-26 14:52:00,
2013-11-26 09:12:00,31.0,27.0,30.07,West,272,5.0,8.0,85,0.00,,,0.00,,2013-11-26 15:12:00,
2013-11-26 09:22:00,32.0,28.0,30.06,West,278,5.0,9.0,84,0.00,,,0.00,,2013-11-26 15:22:00,
2013-11-26 09:54:00,33.0,28.0,30.06,WNW,289,4.0,9.0,83,0.00,,,0.00,,2013-11-26 15:54:00,
2013-11-26 10:13:00,34.0,29.0,30.06,WNW,296,5.0,8.0,82,0.00,,,0.00,,2013-11-26 16:13:00,
2013-11-26 10:23:00,35.0,29.0,30.06,West,269,5.0,10.0,79,0.00,,,0.00,,2013-11-26 16:23:00,
2013-11-26 10:43:00,36.0,29.0,30.07,WNW,285,6.0,12.0,77,0.00,,,0.00,,2013-11-26 16:43:00,
2013-11-26 10:54:00,35.0,28.0,30.07,West,280,6.0,10.0,76,0.00,,,0.00,,2013-11-26 16:54:00,
2013-11-26 11:13:00,36.0,29.0,30.07,West,275,6.0,10.0,74,0.00,,,0.00,,2013-11-26 17:13:00,
2013-11-26 11:22:00,36.0,29.0,30.07,West,268,6.0,11.0,74,0.00,,,0.00,,2013-11-26 17:22:00,
2013-11-26 11:42:00,37.0,29.0,30.06,NW,309,6.0,14.0,73,0.00,,,0.00,,2013-11-26 17:42:00,
2013-11-26 11:52:00,37.0,28.0,30.05,WNW,294,7.0,10.0,71,0.00,,,0.00,,2013-11-26 17:52:00,
2013-11-26 12:11:00,37.0,29.0,30.04,West,281,6.0,11.0,72,0.00,,,0.00,,2013-11-26 18:11:00,
2013-11-26 12:22:00,37.0,29.0,30.05,WNW,283,9.0,12.0,72,0.00,,,0.00,,2013-11-26 18:22:00,
2013-11-26 12:42:00,37.0,29.0,30.04,West,281,7.0,11.0,73,0.00,,,0.00,,2013-11-26 18:42:00,
2013-11-26 12:53:00,36.0,28.0,30.05,West,276,7.0,13.0,73,0.00,,,0.00,,2013-11-26 18:53:00,
2013-11-26 13:11:00,36.0,28.0,30.04,WNW,302,8.0,12.0,73,0.00,,,0.00,,2013-11-26 19:11:00,
2013-11-26 13:22:00,35.0,28.0,30.04,West,271,8.0,12.0,75,0.00,,,0.00,,2013-11-26 19:22:00,
2013-11-26 13:42:00,34.0,27.0,30.05,WNW,300,8.0,13.0,76,0.00,,,0.00,,2013-11-26 19:42:00,
2013-11-26 13:52:00,34.0,27.0,30.05,WNW,300,8.0,13.0,76,0.00,,,0.00,,2013-11-26 19:52:00,
2013-11-26 14:12:00,34.0,28.0,30.04,West,277,6.0,11.0,79,0.00,,,0.00,,2013-11-26 20:12:00,
2013-11-26 14:22:00,34.0,28.0,30.03,WNW,286,7.0,11.0,79,0.00,,,0.00,,2013-11-26 20:22:00,
2013-11-26 14:42:00,33.0,28.0,30.04,West,269,8.0,14.0,80,0.00,,,0.00,,2013-11-26 20:42:00,
2013-11-26 14:53:00,33.0,28.0,30.04,WNW,283,7.0,12.0,81,0.00,,,0.00,,2013-11-26 20:53:00,
2013-11-26 15:11:00,33.0,27.0,30.04,NW,315,8.0,12.0,78,0.00,,,0.00,,2013-11-26 21:11:00,
2013-11-26 15:22:00,33.0,27.0,30.04,WNW,286,9.0,14.0,79,0.00,,,0.00,,2013-11-26 21:22:00,
2013-11-26 15:43:00,33.0,27.0,30.05,WNW,299,8.0,12.0,79,0.00,,,0.00,,2013-11-26 21:43:00,
2013-11-26 15:53:00,33.0,27.0,30.05,WNW,299,8.0,12.0,79,0.00,,,0.00,,2013-11-26 21:53:00,
2013-11-26 16:13:00,33.0,26.0,30.05,WNW,283,8.0,15.0,75,0.00,,,0.00,,2013-11-26 22:13:00,
2013-11-26 16:23:00,32.0,26.0,30.06,WNW,286,7.0,11.0,77,0.00,,,0.00,,2013-11-26 22:23:00,
2013-11-26 16:43:00,32.0,26.0,30.06,NW,313,6.0,13.0,78,0.00,,,0.00,,2013-11-26 22:43:00,
2013-11-26 16:53:00,32.0,26.0,30.06,NW,318,7.0,14.0,79,0.00,,,0.00,,2013-11-26 22:53:00,
2013-11-26 17:22:00,31.0,25.0,30.07,WNW,286,11.0,17.0,77,0.00,,,0.00,,2013-11-26 23:22:00,
2013-11-26 17:43:00,31.0,24.0,30.08,WNW,302,9.0,17.0,75,0.00,,,0.00,,2013-11-26 23:43:00,
2013-11-26 17:53:00,31.0,24.0,30.09,WNW,287,8.0,14.0,75,0.00,,,0.00,,2013-11-26 23:53:00,
2013-11-26 18:11:00,30.0,23.0,30.09,West,270,8.0,13.0,74,0.00,,,0.00,,2013-11-27 00:11:00,
2013-11-26 18:21:00,30.0,23.0,30.10,West,279,10.0,16.0,74,0.00,,,0.00,,2013-11-27 00:21:00,
2013-11-26 18:52:00,28.0,19.0,30.11,West,275,9.0,15.0,68,0.00,,,0.00,,2013-11-27 00:52:00,
2013-11-26 19:11:00,27.0,18.0,30.11,NW,304,10.0,17.0,69,0.00,,,0.00,,2013-11-27 01:11:00,
2013-11-26 19:21:00,27.0,18.0,30.11,NW,304,8.0,15.0,69,0.00,,,0.00,,2013-11-27 01:21:00,
2013-11-26 19:42:00,27.0,18.0,30.12,WNW,290,10.0,15.0,69,0.00,,,0.00,,2013-11-27 01:42:00,
2013-11-26 19:52:00,27.0,18.0,30.12,WNW,288,10.0,17.0,68,0.00,,,0.00,,2013-11-27 01:52:00,
2013-11-26 20:12:00,26.0,18.0,30.13,WNW,298,11.0,16.0,70,0.00,,,0.00,,2013-11-27 02:12:00,
2013-11-26 20:21:00,26.0,18.0,30.14,WNW,283,5.0,15.0,71,0.00,,,0.00,,2013-11-27 02:21:00,
2013-11-26 20:42:00,26.0,17.0,30.14,NW,324,7.0,15.0,67,0.00,,,0.00,,2013-11-27 02:42:00,
2013-11-26 20:52:00,25.0,15.0,30.15,ENE,65,6.0,16.0,65,0.00,,,0.00,,2013-11-27 02:52:00,
2013-11-26 21:11:00,25.0,15.0,30.15,NNW,327,5.0,12.0,65,0.00,,,0.00,,2013-11-27 03:11:00,
2013-11-26 21:21:00,24.0,14.0,30.16,North,5,4.0,16.0,65,0.00,,,0.00,,2013-11-27 03:21:00,
2013-11-26 21:44:00,24.0,13.0,30.17,NNW,337,5.0,18.0,63,0.00,,,0.00,,2013-11-27 03:44:00,
2013-11-26 21:53:00,23.0,12.0,30.18,NNE,17,5.0,12.0,63,0.00,,,0.00,,2013-11-27 03:53:00,
2013-11-26 22:13:00,22.0,11.0,30.18,NNW,330,5.0,14.0,62,0.00,,,0.00,,2013-11-27 04:13:00,
2013-11-26 22:43:00,20.0,11.0,30.19,NNW,337,4.0,12.0,66,0.00,,,0.00,,2013-11-27 04:43:00,
2013-11-26 22:53:00,20.0,11.0,30.19,NNE,17,7.0,14.0,67,0.00,,,0.00,,2013-11-27 04:53:00,
2013-11-26 23:12:00,19.0,11.0,30.19,NNW,347,2.0,10.0,69,0.00,,,0.00,,2013-11-27 05:12:00,
2013-11-26 23:22:00,19.0,11.0,30.19,NW,309,4.0,8.0,70,0.00,,,0.00,,2013-11-27 05:22:00,
2013-11-26 23:42:00,18.0,10.0,30.19,NNE,13,3.0,9.0,70,0.00,,,0.00,,2013-11-27 05:42:00,
2013-11-26 23:53:00,18.0,11.0,30.19,WNW,288,3.0,7.0,72,0.00,,,0.00,,2013-11-27 05:53:00,